Weather History for Prairie Du Chien, WI

Change the Weather History Date:

Saturday, December 8, 2012

  Actual Average Record
Temperature  
Mean Temperature 32 °F -  
Max Temperature 39 °F 33 °F 50 °F (1999)
Min Temperature 24 °F 19 °F -7 °F (1976)
Degree Days  
Heating Degree Days 34    
Moisture  
Dew Point 24 °F    
Average Humidity 70    
Maximum Humidity 86    
Minimum Humidity 52    
Precipitation  
Precipitation 0.00 in - - ()
Sea Level Pressure  
Sea Level Pressure 30.03 in    
Wind  
Wind Speed 3 mph (East)    
Max Wind Speed 8 mph    
Max Gust Speed -    
Visibility 10 miles    
Events      
Averages and records for this station are not official NWS values.
T = Trace of Precipitation, MM = Missing Value Source: NWS Daily Summary

Daily Weather History Graph

Daily Weather History Graph

Search for Another Location

Airport:

Trip Planner

Search our weather history database for the weather conditions in past years. The results will help you decide how hot, cold, wet, or windy it might be!

Date:

Astronomy

Dec. 08, 2012 Rise Set
Actual Time 7:23 AM CST 4:29 PM CST
Civil Twilight 6:51 AM CST 5:01 PM CST
Nautical Twilight 6:15 AM CST 5:37 PM CST
Astronomical Twilight 5:41 AM CST 6:11 PM CST
Moon 1:41 AM CST (12/8) 1:05 PM CST (12/8)
Length of Visible Light 10h 10m
Length of Day
9h 06m
Waning Crescent, 28% of the Moon is Illuminated
Dec 8
Waning Crescent
Dec 13
New
Dec 19
First Quarter
Dec 28
Full
Jan 4
Last Quarter

Hourly Weather History & Observations

Time (CST) Temp. Windchill Dew Point Humidity Pressure Visibility Wind Dir Wind Speed Gust Speed Precip Events Conditions
12:15 AM 32.0 °F 28.7 °F 23.0 °F 69% 29.97 in 10.0 mi NNE 3.5 mph - N/A   Overcast
12:35 AM 33.8 °F - 23.0 °F 65% 29.97 in 10.0 mi Calm Calm - N/A   Overcast
12:55 AM 32.0 °F - 23.0 °F 69% 29.97 in 10.0 mi Calm Calm - N/A   Overcast
1:15 AM 32.0 °F 28.7 °F 23.0 °F 69% 29.97 in 10.0 mi North 3.5 mph - N/A   Overcast
1:35 AM 32.0 °F - 23.0 °F 69% 29.97 in 10.0 mi Calm Calm - N/A   Overcast
1:55 AM 32.0 °F - 23.0 °F 69% 29.97 in 10.0 mi Calm Calm - N/A   Overcast
2:15 AM 32.0 °F 28.7 °F 23.0 °F 69% 29.98 in 10.0 mi NNW 3.5 mph - N/A   Overcast
2:55 AM 32.0 °F 27.5 °F 23.0 °F 69% 29.98 in 10.0 mi NNW 4.6 mph - N/A   Overcast
3:15 AM 32.0 °F 27.5 °F 23.0 °F 69% 29.98 in 10.0 mi NNW 4.6 mph - N/A   Mostly Cloudy
3:35 AM 30.2 °F 26.7 °F 23.0 °F 75% 29.98 in 10.0 mi NNW 3.5 mph - N/A   Scattered Clouds
3:55 AM 30.2 °F - 23.0 °F 75% 29.97 in 10.0 mi Calm Calm - N/A   Clear
4:15 AM 28.4 °F - 23.0 °F 80% 29.98 in 10.0 mi Calm Calm - N/A   Clear
4:35 AM 28.4 °F 22.2 °F 23.0 °F 80% 29.98 in 10.0 mi NNW 5.8 mph - N/A   Scattered Clouds
5:15 AM 28.4 °F 24.6 °F 23.0 °F 80% 29.99 in 10.0 mi North 3.5 mph - N/A   Clear
5:35 AM 26.6 °F 21.2 °F 21.2 °F 80% 30.00 in 10.0 mi NNW 4.6 mph - N/A   Clear
5:55 AM 26.6 °F - 21.2 °F 80% 30.01 in 10.0 mi Calm Calm - N/A   Clear
6:15 AM 26.6 °F 19.1 °F 23.0 °F 86% 30.02 in 10.0 mi NNW 6.9 mph - N/A   Clear
6:35 AM 26.6 °F 21.2 °F 23.0 °F 86% 30.02 in 10.0 mi NNW 4.6 mph - N/A   Clear
6:55 AM 26.6 °F - 21.2 °F 80% 30.03 in 10.0 mi Calm Calm - N/A   Clear
7:15 AM 24.8 °F - 21.2 °F 86% 30.03 in 10.0 mi Calm Calm - N/A   Clear
7:35 AM 24.8 °F - 21.2 °F 86% 30.03 in 10.0 mi Calm Calm - N/A   Clear
7:55 AM 26.6 °F - 21.2 °F 80% 30.04 in 10.0 mi Calm Calm - N/A   Clear
8:15 AM 26.6 °F - 23.0 °F 86% 30.05 in 10.0 mi Calm Calm - N/A   Clear
8:35 AM 28.4 °F - 23.0 °F 80% 30.05 in 10.0 mi Calm Calm - N/A   Clear
8:55 AM 28.4 °F - 23.0 °F 80% 30.05 in 10.0 mi Calm Calm - N/A   Clear
9:15 AM 30.2 °F - 23.0 °F 75% 30.05 in 10.0 mi Calm Calm - N/A   Clear
9:35 AM 30.2 °F - 24.8 °F 80% 30.06 in 10.0 mi Calm Calm - N/A   Clear
9:55 AM 32.0 °F - 24.8 °F 75% 30.06 in 10.0 mi Calm Calm - N/A   Clear
10:15 AM 33.8 °F - 24.8 °F 70% 30.06 in 10.0 mi Calm Calm - N/A   Clear
10:35 AM 33.8 °F 29.6 °F 24.8 °F 70% 30.06 in 10.0 mi ESE 4.6 mph - N/A   Clear
10:55 AM 35.6 °F - 24.8 °F 65% 30.06 in 10.0 mi Calm Calm - N/A   Clear
11:15 AM 35.6 °F - 24.8 °F 65% 30.05 in 10.0 mi Calm Calm - N/A   Clear
11:35 AM 35.6 °F 31.7 °F 24.8 °F 65% 30.04 in 10.0 mi SSE 4.6 mph - N/A   Clear
11:55 AM 35.6 °F - 24.8 °F 65% 30.03 in 10.0 mi Calm Calm - N/A   Clear
12:15 PM 37.4 °F 32.8 °F 24.8 °F 60% 30.02 in 10.0 mi ESE 5.8 mph - N/A   Clear
12:35 PM 37.4 °F 33.8 °F 24.8 °F 60% 30.02 in 10.0 mi SE 4.6 mph - N/A   Clear
12:55 PM 37.4 °F 33.8 °F 24.8 °F 60% 30.02 in 10.0 mi ESE 4.6 mph - N/A   Clear
1:15 PM 39.2 °F 35.0 °F 23.0 °F 52% 30.02 in 10.0 mi East 5.8 mph - N/A   Clear
1:35 PM 39.2 °F 37.0 °F 24.8 °F 56% 30.02 in 10.0 mi East 3.5 mph - N/A   Clear
1:55 PM 37.4 °F 34.9 °F 24.8 °F 60% 30.02 in 10.0 mi NE 3.5 mph - N/A   Clear
2:15 PM 39.2 °F - 24.8 °F 56% 30.03 in 10.0 mi Calm Calm - N/A   Clear
2:35 PM 39.2 °F 35.0 °F 24.8 °F 56% 30.02 in 10.0 mi East 5.8 mph - N/A   Clear
2:55 PM 39.2 °F 35.9 °F 23.0 °F 52% 30.02 in 10.0 mi East 4.6 mph - N/A   Clear
3:15 PM 39.2 °F 35.9 °F 23.0 °F 52% 30.03 in 10.0 mi East 4.6 mph - N/A   Clear
3:35 PM 37.4 °F 32.8 °F 23.0 °F 56% 30.04 in 10.0 mi ESE 5.8 mph - N/A   Clear
3:55 PM 37.4 °F 33.8 °F 24.8 °F 60% 30.03 in 10.0 mi East 4.6 mph - N/A   Clear
4:15 PM 37.4 °F 34.9 °F 24.8 °F 60% 30.04 in 10.0 mi East 3.5 mph - N/A   Clear
4:35 PM 35.6 °F 32.8 °F 24.8 °F 65% 30.05 in 10.0 mi East 3.5 mph - N/A   Clear
4:55 PM 35.6 °F - 24.8 °F 65% 30.04 in 10.0 mi Calm Calm - N/A   Clear
5:15 PM 35.6 °F - 24.8 °F 65% 30.04 in 10.0 mi Calm Calm - N/A   Clear
5:35 PM 33.8 °F - 24.8 °F 70% 30.04 in 10.0 mi Calm Calm - N/A   Clear
5:55 PM 33.8 °F - 24.8 °F 70% 30.03 in 10.0 mi Calm Calm - N/A   Clear
6:15 PM 33.8 °F - 24.8 °F 70% 30.04 in 10.0 mi Calm Calm - N/A   Clear
6:35 PM 33.8 °F 30.8 °F 24.8 °F 70% 30.04 in 10.0 mi ESE 3.5 mph - N/A   Clear
6:55 PM 33.8 °F 29.6 °F 24.8 °F 70% 30.04 in 10.0 mi ESE 4.6 mph - N/A   Clear
7:15 PM 33.8 °F 29.6 °F 24.8 °F 70% 30.05 in 10.0 mi ESE 4.6 mph - N/A   Scattered Clouds
7:35 PM 33.8 °F 28.6 °F 24.8 °F 70% 30.05 in 10.0 mi East 5.8 mph - N/A   Scattered Clouds
7:55 PM 33.8 °F 28.6 °F 24.8 °F 70% 30.04 in 10.0 mi ESE 5.8 mph - N/A   Clear
8:15 PM 33.8 °F 27.7 °F 24.8 °F 70% 30.04 in 10.0 mi East 6.9 mph - N/A   Clear
8:35 PM 33.8 °F 28.6 °F 24.8 °F 70% 30.05 in 10.0 mi ESE 5.8 mph - N/A   Clear
8:55 PM 33.8 °F 27.0 °F 24.8 °F 70% 30.04 in 10.0 mi ESE 8.1 mph - N/A   Clear
9:15 PM 33.8 °F 28.6 °F 26.6 °F 75% 30.04 in 10.0 mi ESE 5.8 mph - N/A   Mostly Cloudy
9:35 PM 33.8 °F 29.6 °F 26.6 °F 75% 30.05 in 10.0 mi East 4.6 mph - N/A   Overcast
9:55 PM 33.8 °F 27.0 °F 26.6 °F 75% 30.05 in 10.0 mi East 8.1 mph - N/A   Overcast
10:15 PM 33.8 °F 27.0 °F 26.6 °F 75% 30.05 in 10.0 mi East 8.1 mph - N/A   Overcast
10:35 PM 33.8 °F 27.0 °F 26.6 °F 75% 30.05 in 10.0 mi East 8.1 mph - N/A   Overcast
10:55 PM 33.8 °F 28.6 °F 26.6 °F 75% 30.06 in 10.0 mi East 5.8 mph - N/A   Overcast
11:15 PM 35.6 °F 30.7 °F 28.4 °F 75% 30.06 in 10.0 mi East 5.8 mph - N/A   Overcast
11:35 PM 35.6 °F 30.7 °F 28.4 °F 75% 30.06 in 10.0 mi ESE 5.8 mph - N/A   Overcast
11:55 PM 35.6 °F 29.2 °F 28.4 °F 75% 30.05 in 10.0 mi ESE 8.1 mph - N/A   Overcast